Regional Weather Roundup
Issued by NWS

Home | Current Version | Previous Version | Text Only | Print | Product List | Glossary Off
Versions: 1 2 3 4 5 6 7 8 9 10 11 12 13 14 15 16 17 18 19 20 21 22 23 24 25 26 27 28 29 30 31 32 33 34 35 36 37 38 39 40 41 42 43 44 45 46 47 48 49 50

000
ASUS43 KLOT 291503
RWRIL

ILLINOIS REGIONAL WEATHER ROUNDUP
NATIONAL WEATHER SERVICE CHICAGO/ROMEOVILLE IL
1000 AM CDT SUN MAY 29 2016

NOTE: "FAIR" INDICATES FEW OR NO CLOUDS BELOW 12,000 FEET WITH NO
SIGNIFICANT WEATHER AND/OR OBSTRUCTIONS TO VISIBILITY.

* THESE STATIONS ARE NOT UNDER NWS QUALITY CONTROL. THEY ALSO MAY NOT
  REPORT WEATHER SUCH AS PRECIPITATION OR FOG.

ILZ001-002-007-009-015-016-024-291600-
NORTHWEST ILLINOIS

CITY           SKY/WX    TMP DP  RH WIND       PRES   REMARKS
MOLINE         MOSUNNY   72  60  66 W5        30.04R
STERLING*      CLOUDY    69  62  78 W13       30.04R
$$

ILZ003-004-008-010-011-017-018-291600-
NORTH CENTRAL ILLINOIS

CITY           SKY/WX    TMP DP  RH WIND       PRES   REMARKS
ROCKFORD       CLOUDY    68  59  73 SW9       30.04R
FREEPORT*      CLOUDY    66  60  81 W13G18    30.03R
ROCHELLE*      CLOUDY    67  60  80 W20G25    30.04R
$$

ILZ005-006-012>014-019>023-291600-
NORTHEAST ILLINOIS

CITY           SKY/WX    TMP DP  RH WIND       PRES   REMARKS
CHICAGO-OHARE  MOSUNNY   74  61  63 SW14G23   29.99S
CHICAGO-MIDWAY MOSUNNY   77  60  55 SW20G26   29.99F
AURORA         PTSUNNY   73  61  65 SW14G24   30.02R
LANSING*       SUNNY     77  61  56 SW17      30.02S
WAUKEGAN       MOSUNNY   74  62  66 SW22      29.97S
DUPAGE AIRPORT MOSUNNY   73  59  61 SW17G29   30.00S
WHEELING       SUNNY     74  59  59 SW15G23   30.00R
NORTHERLY ISL    N/A     76  58  53 S9          N/A
NORTHERLY ISL    N/A     76  58  53 S9          N/A
$$

LMZ740>746-291600-
SOUTHERN LAKE MICHIGAN

STATION/POSITION SKY/WX   TEMP    WIND        PRES    VSBY  WAVE
                          AIR SEA DIR/SP/G                  HT/PER
                          (F)     (DEG/KT/KT) (MB)    (MI)  (FT/S)
SOUTHERN BUOY              54 50  170/ 10/ 10 1014.7          1/ 3
WILMETTE HARBOR            66 53  250/ 14/ 17   N/A           1/ 2
HARRISON CRIB              74     220/ 19/ 22   N/A
BURNHAM HARBOR             76     200/  8/ 16   N/A
CALUMET HARBOR             73     190/ 11/ 16 1015.4R
BURNS HARBOR               73     220/ 12/ 16 1016.6S
MICHIGAN CITY              72     190/ 13/ 15   N/A
MICHIGAN CITY 6N           63 57  210/  6/  8   N/A           1
ST. JOSEPH                 65 61  210/  6/  8   N/A           1/ 3
$$

ILZ025>027-034>036-040-047-049-050-058-095>099-291600-
WEST-CENTRAL ILLINOIS

CITY           SKY/WX    TMP DP  RH WIND       PRES   REMARKS
QUINCY         SUNNY     74  58  57 W8        30.09R
MACOMB*        SUNNY     73  61  66 W10       30.10R
PITTSFIELD*    SUNNY     76  64  64 W7        30.10S
$$

ILZ028>032-037-038-041>044-048-051>054-059>061-291600-
CENTRAL ILLINOIS

CITY           SKY/WX    TMP DP  RH WIND       PRES   REMARKS
BLOOMINGTON    SUNNY     74  66  75 SW15      30.08S
DECATUR        SUNNY     79  61  53 SW10      30.08S HX  80
PEORIA         SUNNY     75  60  59 W12       30.06R
LINCOLN*       SUNNY     77  66  67 SW6       30.07S
SPRINGFIELD    SUNNY     79  61  53 W13       30.08S HX  80
TAYLORVILLE    NOT AVBL
$$

ILZ033-039-045-046-055>057-062-063-291600-
EAST-CENTRAL ILLINOIS

CITY           SKY/WX    TMP DP  RH WIND       PRES   REMARKS
CHAMPAIGN      MOSUNNY   79  59  50 SW13      30.08S HX  80
MATTOON        SUNNY     78  62  57 VRB7      30.09R HX  80
$$

ILZ079-100>102-291600-
SOUTHWEST ILLINOIS

CITY           SKY/WX    TMP DP  RH WIND       PRES   REMARKS
ALTON          SUNNY     77  61  57 W6        30.10S
BELLEVILLE     MOSUNNY   80  66  61 NW6       30.09S HX  82
CAHOKIA*       SUNNY     79  64  60 VRB3      30.09S HX  81
SPARTA*        SUNNY     77  68  73 NW3       30.11S
$$

ILZ064>066-069>071-074>076-080>082-084>086-088>090-092>094-291600-
SOUTH-CENTRAL ILLINOIS

CITY           SKY/WX    TMP DP  RH WIND       PRES   REMARKS
CARBONDALE     PTSUNNY   77  67  71 W6        30.10S
EFFINGHAM*     MOSUNNY   78  71  79 S7        30.11S HX  80
MARION         PTSUNNY   77  72  83 NW9       30.11S
MT. VERNON     SUNNY     77  66  69 NW3       30.10F
SALEM*         SUNNY     78  68  72 W6        30.10S HX  80
$$

ILZ067-068-072-073-078-083-087-091-291600-
SOUTHEAST ILLINOIS

CITY           SKY/WX    TMP DP  RH WIND       PRES   REMARKS
LAWRENCEVILLE  MOSUNNY   80  69  69 VRB3      30.09S HX  83
FLORA*         PTSUNNY   78  70  76 SW6       30.09F HX  80
HARRISBURG*    PTSUNNY   77  70  79 CALM      30.10S
ROBINSON*      SUNNY     79  66  63 SW6       30.09F HX  81
$$

ABBREVIATIONS USED IN REMARKS
   TC - TEMPERATURE IN CELSIUS
  WCI - WIND CHILL INDEX
   HX - HEAT INDEX
  VSB - VISIBILITY
$$




USA.gov is the U.S. government's official web portal to all federal, state and local government web resources and services.